Flag for United Kingdom Weather past 2 weeks in Ely, England, United Kingdom

Now
52 °F

Partly sunny.


Feels Like: 50 °F
Forecast: 35 / 51 °F
Wind: 7 mph from Northeast

Location: Mildenhall Royal Air Force Base

Current Time: Apr 26, 2015 at 4:53:36 PM

Latest Report: Apr 26, 2015 at 3:58 PM


Visibility: N/A

Pressure: 29.77 "Hg

Humidity: 59%

Dew point: 38 °F

Location of ElyLocation

Historic Weather in Ely — Graph

°F

Ely temperature yesterday

Maximum temperature yesterday: 64 °F (at 3:58 PM)
Minimum temperature yesterday: 46 °F (at 11:58 PM)
Average temperature yesterday: 56 °F

Past Weeks' High & Low Weather Summary

 TemperatureHumidityPressure
High72 °F (Apr 15, 2:58 PM)100% (Apr 20, 3:58 AM)30.57 "Hg (Apr 20, 3:58 AM)
Low32 °F (Apr 20, 3:58 AM)32% (Apr 11, 3:58 PM)29.62 "Hg (Apr 25, 3:58 PM)
Average50 °F72%30.17 "Hg
* Reported Apr 11 2:58 PM — Apr 26 2:58 PM, Ely, Weather by CustomWeather, © 2015

Note: Actual official high and low records may vary slightly from our data, if they occured in-between our weather recording intervals... More about our weather records

Advertising

Ely weather history for previous 24 hours

 ConditionsComfort  
Time TempWeatherWind HumidityBarometerVisibility
2:58 PM
Sun, Apr 26
52 °FPartly sunny.2 mph61%29.77 "HgN/A
1:58 PM50 °FLight rain. Mostly cloudy.2 mph67%29.79 "HgN/A
12:58 PM51 °FMostly cloudy.7 mph64%29.78 "HgN/A
11:58 AM51 °FMostly cloudy.6 mph63%29.78 "HgN/A
10:58 AM49 °FMostly cloudy.5 mph69%29.78 "HgN/A
9:58 AM48 °FMore clouds than sun.7 mph76%29.77 "HgN/A
8:58 AM46 °FOvercast.8 mph84%29.78 "HgN/A
7:58 AM45 °FOvercast.7 mph90%29.77 "HgN/A
6:58 AM44 °FOvercast.6 mph94%29.76 "HgN/A
5:58 AM44 °FOvercast.5 mph97%29.74 "HgN/A
4:58 AM43 °FMostly cloudy.6 mph100%29.74 "HgN/A
4:03 AM45 °FLight rain. Mostly cloudy.8 mph93%29.73 "HgN/A
2:58 AM45 °FDrizzle. Low clouds.8 mph99%29.73 "HgN/A
1:58 AM45 °FLight rain. Low clouds.6 mph99%29.72 "HgN/A
12:58 AM46 °FLight rain. Mostly cloudy.8 mph99%29.72 "HgN/A
11:58 PM
Sat, Apr 25
46 °FLight rain. Mostly cloudy.10 mph93%29.72 "HgN/A
10:58 PM48 °FLight rain. Low clouds.9 mph95%29.72 "HgN/A
9:58 PM50 °FLight rain. Mostly cloudy.9 mph87%29.70 "HgN/A
8:58 PM53 °FCloudy.13 mph82%29.68 "HgN/A
7:58 PM60 °FPartly sunny.7 mph56%29.65 "HgN/A
6:58 PM61 °FBroken clouds.10 mph51%29.64 "HgN/A
5:58 PM63 °FScattered clouds.16 mph47%29.63 "HgN/A
4:58 PM64 °FScattered clouds.16 mph45%29.63 "HgN/A
Weather by CustomWeather, © 2015

See weather overviewHow to use our weather pages